Regional Weather Roundup
Issued by NWS

Home | Current Version | Previous Version | Text Only | Print | Product List | Glossary Off
Versions: 1 2 3 4 5 6 7 8 9 10 11 12 13 14 15 16 17 18 19 20 21 22 23 24 25 26 27 28 29 30 31 32 33 34 35 36 37 38 39 40 41 42 43 44 45 46 47 48 49 50

448
ASUS43 KIND 241009
RWRIN

WEATHER ROUNDUP FOR INDIANA
NATIONAL WEATHER SERVICE INDIANAPOLIS IN
600 AM EDT WED AUG 24 2016

NOTE: "FAIR" INDICATES FEW OR NO CLOUDS BELOW 12,000 FEET WITH NO
SIGNIFICANT WEATHER AND/OR OBSTRUCTIONS TO VISIBILITY.

* - STATION DOES NOT REPORT WEATHER SUCH AS PRECIPITATION OR FOG.

+ - STATION NOT QUALITY CONTROLLED BY THE NATIONAL WEATHER SERVICE.
    USE DATA WITH CAUTION...ESPECIALLY DEWPOINT AND RELATIVE
    HUMIDITY OBSERVATIONS.

INZ001>003-010>013-019-020-241100-
NORTHWEST INDIANA

CITY           SKY/WX    TMP DP  RH WIND       PRES   REMARKS
GARY /AIRPORT/ PTCLDY    73  64  73 S9        30.05F
KNOX *+        CLOUDY    68  45  42 S8        30.08F
LA PORTE +     CLOUDY    69  68  97 S6        30.09F
MICHIGAN CITY+ CLOUDY    68  63  83 MISG      30.07F
MONTICELLO +   CLOUDY    69  60  75 SE6       30.09F
RENSSELAER +   CLOUDY    70  64  83 S7        30.08F
VALPARAISO     PTCLDY    69  63  81 S8        30.07F

$$

LMZ046-743>745-241100-
SOUTHERN LAKE MICHIGAN

STATION/POSITION TIME  TEMP    WIND        PRES    WAVE
                       AIR SEA DIR/SP/G            HT
                 (UTC) (F)     (DEG/KT/KT) (MB)    (FT)
BURNS HARBOR     0903   71     180/ 11/ 20 1018.3F
MICHIGAN CITY    0900   70     150/  9/ 11   N/A
5NW MICH CITY    1000   71 73  180/ 12/ 16   N/A     1

$$

INZ004-005-014>016-021>024-241100-
NORTH CENTRAL INDIANA

CITY           SKY/WX    TMP DP  RH WIND       PRES   REMARKS
GOSHEN         MOCLDY    68  59  73 S8        30.11F
LOGANSPORT +   CLOUDY    66  63  88 S7        30.12F
PERU/GRISSOM   CLOUDY    68  64  85 S7        30.11F
ROCHESTER +    CLOUDY    72  64  78 S6        30.11F
SOUTH BEND     CLOUDY    68  62  81 S9        30.09F
WARSAW +       CLOUDY    68  61  77 S3        30.12F

$$

INZ006>009-017-018-025>027-241100-
NORTHEAST INDIANA

CITY           SKY/WX    TMP DP  RH WIND       PRES   REMARKS
ANGOLA *+      CLEAR     63  61  94 S5        30.13F
AUBURN +       CLOUDY    63  59  88 CALM      30.15F
FORT WAYNE     CLOUDY    66  61  84 S6        30.15F
HUNTINGTON +   CLOUDY   N/A N/A N/A S3        30.14F

$$

INZ028-029-035-036-043>045-051>053-241100-
WEST CENTRAL INDIANA

CITY           SKY/WX    TMP DP  RH WIND       PRES   REMARKS
CRAWFORDSVL +  CLOUDY    66  66 100 S5        30.12F
GREENCASTLE +  CLOUDY    68  64  88 S6        30.14F
LAFAYETTE      CLOUDY    69  64  84 VRB6      30.09F
TERRE HAUTE    CLOUDY    71  65  81 S5        30.12F

$$

INZ030>032-037>040-046>048-054>057-064-065-241100-
CENTRAL INDIANA

CITY           SKY/WX    TMP DP  RH WIND       PRES   REMARKS
INDIANAPOLIS   CLOUDY    70  63  78 SE5       30.14S
-EAGLE CREEK   CLOUDY    71  63  75 S5        30.14F
KOKOMO *+      PTCLDY    66  59  77 S7        30.14S
MARION +       CLOUDY    66  61  86 S5        30.15F
MT COMFORT *+  CLOUDY    66  63  88 S3        30.16F
SHELBYVILLE    CLOUDY    70  63  78 S6        30.15S
ZIONSVILLE +   CLOUDY    67  64  88 S5        30.15F

$$

INZ033-034-041-042-049-050-058-059-241100-
EAST CENTRAL INDIANA

CITY           SKY/WX    TMP DP  RH WIND       PRES   REMARKS
MUNCIE         CLOUDY    70  62  76 S8        30.15F

$$

INZ060-061-067>069-081>083-085>088-241100-
SOUTHWEST INDIANA

CITY           SKY/WX    TMP DP  RH WIND       PRES   REMARKS
EVANSVILLE     CLOUDY    71  67  87 CALM      30.15S
HUNTINGBURG *+ CLOUDY    70  64  83 S3        30.16S
WASHINGTON +   CLOUDY    69  68  98 MISG      30.13F

$$

INZ062-063-066-070>080-084-089>092-241100-
SOUTH CENTRAL AND SOUTHEAST INDIANA

CITY           SKY/WX    TMP DP  RH WIND       PRES   REMARKS
BLOOMINGTON    CLOUDY    69  63  81 SE5       30.15S
MADISON *+     PTCLDY    68  63  83 SE3       30.19F

$$





USA.gov is the U.S. government's official web portal to all federal, state and local government web resources and services.